Weather History for Hebron, NE

Change the Weather History Date:

Tuesday, June 11, 2013

  Actual Average Record
Temperature  
Mean Temperature 85 °F -  
Max Temperature 98 °F 80 °F 100 °F (1977)
Min Temperature 72 °F 60 °F 49 °F (1955)
Cooling Degree Days 20    
Growing Degree Days 35 (Base 50)    
Moisture  
Dew Point 61 °F    
Average Humidity 48    
Maximum Humidity 86    
Minimum Humidity 23    
Precipitation  
Precipitation 0.00 in - - ()
Sea Level Pressure  
Sea Level Pressure 29.74 in    
Wind  
Wind Speed 11 mph (SSE)    
Max Wind Speed 26 mph    
Max Gust Speed 34 mph    
Visibility 10 miles    
Events Rain , Thunderstorm    
Averages and records for this station are not official NWS values.
T = Trace of Precipitation, MM = Missing Value Source: NWS Daily Summary

Daily Weather History Graph

Daily Weather History Graph

Search for Another Location

Airport:

Trip Planner

Search our weather history database for the weather conditions in past years. The results will help you decide how hot, cold, wet, or windy it might be!

Date:

Astronomy

Jun. 11, 2013 Rise Set
Actual Time 6:00 AM CDT 8:59 PM CDT
Civil Twilight 5:27 AM CDT 9:32 PM CDT
Nautical Twilight 4:46 AM CDT 10:14 PM CDT
Astronomical Twilight 3:57 AM CDT 11:02 PM CDT
Moon 8:45 AM CDT (6/11) 11:03 PM CDT (6/11)
Length of Visible Light 16h 04m
Length of Day
14h 59m
Waxing Crescent, 8% of the Moon is Illuminated
Jun 11
Waxing Crescent
Jun 16
First Quarter
Jun 23
Full
Jun 29
Last Quarter
Jul 8
New

Hourly Weather History & Observations

Time (CDT) Temp. Heat Index Dew Point Humidity Pressure Visibility Wind Dir Wind Speed Gust Speed Precip Events Conditions
12:15 AM 75.2 °F - 66.7 °F 75% 29.77 in 10.0 mi ESE 5.8 mph - N/A   Clear
12:35 AM 75.2 °F - 67.3 °F 76% 29.77 in 10.0 mi ESE 6.9 mph - N/A   Clear
12:55 AM 75.4 °F - 67.6 °F 77% 29.77 in 10.0 mi SE 9.2 mph - N/A   Clear
1:15 AM 75.2 °F - 68.0 °F 78% 29.77 in 10.0 mi SE 8.1 mph - N/A   Clear
1:35 AM 74.3 °F - 68.0 °F 81% 29.77 in 10.0 mi SE 5.8 mph - N/A   Clear
1:55 AM 73.4 °F - 68.0 °F 83% 29.76 in 10.0 mi SE 5.8 mph - N/A   Clear
2:15 AM 72.5 °F - 67.8 °F 85% 29.76 in 10.0 mi SE 4.6 mph - N/A   Clear
2:35 AM 72.5 °F - 67.6 °F 85% 29.80 in 10.0 mi NW 6.9 mph - N/A   Clear
2:55 AM 72.7 °F - 68.4 °F 86% 29.80 in 10.0 mi Calm Calm - N/A Thunderstorm Clear
3:55 AM 77.0 °F - 68.0 °F 74% 29.76 in 10.0 mi South 8.1 mph - N/A Rain , Thunderstorm Light Thunderstorms and Rain
4:15 AM 75.9 °F - 68.0 °F 76% 29.76 in 10.0 mi South 5.8 mph - N/A Thunderstorm Scattered Clouds
4:35 AM 75.9 °F - 67.8 °F 76% 29.77 in 10.0 mi WSW 4.6 mph - N/A Thunderstorm Clear
4:55 AM 75.6 °F - 67.3 °F 75% 29.76 in 10.0 mi West 3.5 mph - N/A   Clear
5:15 AM 75.7 °F - 66.9 °F 74% 29.76 in 10.0 mi East 3.5 mph - N/A   Clear
5:35 AM 75.9 °F - 66.2 °F 72% 29.75 in 10.0 mi SSW 11.5 mph - N/A   Clear
5:55 AM 76.3 °F - 65.8 °F 70% 29.76 in 10.0 mi SSW 9.2 mph - N/A   Clear
6:15 AM 76.6 °F - 65.7 °F 69% 29.76 in 10.0 mi South 19.6 mph - N/A   Clear
6:35 AM 76.5 °F - 65.3 °F 68% 29.76 in 10.0 mi South 18.4 mph - N/A   Clear
6:55 AM 76.5 °F - 65.1 °F 68% 29.79 in 10.0 mi SSW 11.5 mph - N/A   Clear
7:15 AM 77.0 °F - 64.6 °F 65% 29.80 in 10.0 mi South 10.4 mph - N/A   Clear
7:35 AM 77.0 °F - 64.4 °F 65% 29.80 in 10.0 mi SSW 10.4 mph - N/A   Clear
7:55 AM 76.5 °F - 64.6 °F 67% 29.83 in 10.0 mi North 8.1 mph - N/A   Clear
8:15 AM 77.7 °F - 63.9 °F 62% 29.81 in 10.0 mi SSW 5.8 mph - N/A   Clear
8:35 AM 79.9 °F - 63.9 °F 58% 29.81 in 10.0 mi NNE 3.5 mph - N/A   Clear
8:55 AM 81.0 °F 82.7 °F 65.1 °F 58% 29.80 in 10.0 mi SE 5.8 mph - N/A   Clear
9:15 AM 83.3 °F 84.3 °F 63.1 °F 50% 29.80 in 10.0 mi South 8.1 mph - N/A   Clear
9:35 AM 86.2 °F 86.6 °F 61.7 °F 44% 29.79 in 10.0 mi SSE 12.7 mph - N/A   Clear
9:55 AM 88.3 °F 87.3 °F 58.1 °F 36% 29.78 in 10.0 mi SSE 16.1 mph 21.9 mph N/A   Clear
10:15 AM 88.9 °F 87.3 °F 56.7 °F 33% 29.78 in 10.0 mi South 17.3 mph - N/A   Clear
10:35 AM 90.1 °F 88.8 °F 57.4 °F 33% 29.77 in 10.0 mi South 17.3 mph 20.7 mph N/A   Clear
10:55 AM 86.7 °F 86.1 °F 59.0 °F 39% 29.78 in 10.0 mi South 15.0 mph 19.6 mph N/A   Clear
11:15 AM 88.3 °F 87.1 °F 57.6 °F 35% 29.78 in 10.0 mi SSE 13.8 mph 19.6 mph N/A   Clear
11:35 AM 87.8 °F 86.9 °F 58.3 °F 37% 29.78 in 10.0 mi SSE 16.1 mph 23.0 mph N/A   Clear
11:55 AM 88.7 °F 87.3 °F 56.8 °F 34% 29.78 in 10.0 mi SSE 16.1 mph 19.6 mph N/A Thunderstorm Clear
12:15 PM 89.8 °F 88.4 °F 56.8 °F 33% 29.78 in 10.0 mi SSE 19.6 mph 23.0 mph N/A Thunderstorm Clear
12:35 PM 89.2 °F 87.9 °F 57.7 °F 34% 29.79 in 10.0 mi SSE 15.0 mph - N/A   Clear
12:55 PM 88.9 °F 88.0 °F 58.8 °F 36% 29.79 in 10.0 mi SSE 12.7 mph 18.4 mph N/A Thunderstorm Clear
1:15 PM 90.5 °F 89.3 °F 57.9 °F 33% 29.79 in 10.0 mi South 12.7 mph 18.4 mph N/A   Clear
1:35 PM 92.5 °F 91.0 °F 57.0 °F 30% 29.78 in 10.0 mi SSE 15.0 mph 20.7 mph N/A   Clear
1:55 PM 94.6 °F 93.5 °F 57.6 °F 29% 29.76 in 10.0 mi SSE 15.0 mph 20.7 mph N/A   Clear
2:15 PM 94.3 °F 93.0 °F 57.9 °F 29% 29.75 in 10.0 mi SE 18.4 mph - N/A   Clear
2:35 PM 94.8 °F 93.8 °F 58.3 °F 29% 29.75 in 10.0 mi SSE 17.3 mph 26.5 mph N/A   Clear
2:55 PM 96.8 °F 95.8 °F 57.4 °F 27% 29.74 in 10.0 mi SE 18.4 mph 25.3 mph N/A   Clear
3:15 PM 97.3 °F 96.2 °F 57.2 °F 26% 29.74 in 10.0 mi SE 23.0 mph 27.6 mph N/A   Clear
3:35 PM 97.2 °F 96.0 °F 56.5 °F 26% 29.73 in 10.0 mi SSE 16.1 mph 31.1 mph N/A   Clear
3:55 PM 97.7 °F 95.9 °F 55.6 °F 24% 29.72 in 10.0 mi South 18.4 mph 29.9 mph N/A   Clear
4:15 PM 98.1 °F 96.4 °F 55.0 °F 24% 29.72 in 10.0 mi SSE 23.0 mph 29.9 mph N/A   Clear
4:35 PM 98.1 °F 96.1 °F 54.9 °F 23% 29.71 in 10.0 mi SSE 26.5 mph 31.1 mph N/A   Clear
4:55 PM 97.7 °F 95.6 °F 54.3 °F 23% 29.70 in 10.0 mi South 23.0 mph 33.4 mph N/A   Clear
5:15 PM 97.7 °F 95.6 °F 54.3 °F 23% 29.70 in 10.0 mi SSE 23.0 mph 29.9 mph N/A   Clear
5:35 PM 97.3 °F 95.1 °F 53.6 °F 23% 29.69 in 10.0 mi South 24.2 mph 33.4 mph N/A   Clear
5:55 PM 97.0 °F 94.6 °F 53.4 °F 23% 29.69 in 10.0 mi South 24.2 mph 34.5 mph N/A   Clear
6:15 PM 96.8 °F 94.7 °F 54.3 °F 24% 29.68 in 10.0 mi South 23.0 mph 34.5 mph N/A   Clear
6:35 PM 95.2 °F 93.3 °F 55.4 °F 26% 29.67 in 10.0 mi South 19.6 mph 27.6 mph N/A   Clear
6:55 PM 94.8 °F 92.8 °F 55.4 °F 26% 29.67 in 10.0 mi South 20.7 mph 26.5 mph N/A   Clear
7:15 PM 92.5 °F 91.0 °F 57.0 °F 30% 29.66 in 10.0 mi South 16.1 mph 20.7 mph N/A   Clear
7:35 PM 91.8 °F 90.9 °F 58.6 °F 33% 29.66 in 10.0 mi SSE 13.8 mph 21.9 mph N/A   Clear
7:55 PM 90.7 °F 90.1 °F 59.5 °F 35% 29.66 in 10.0 mi SSE 16.1 mph - N/A   Clear
8:15 PM 90.0 °F 89.1 °F 59.0 °F 35% 29.66 in 10.0 mi SSE 15.0 mph 23.0 mph N/A   Clear
8:35 PM 88.7 °F 88.3 °F 59.9 °F 38% 29.66 in 10.0 mi South 15.0 mph 20.7 mph N/A   Clear
8:55 PM 87.8 °F 87.6 °F 60.8 °F 40% 29.66 in 10.0 mi South 17.3 mph 20.7 mph N/A   Clear
9:15 PM 86.5 °F 86.8 °F 61.5 °F 43% 29.66 in 10.0 mi SSE 13.8 mph 19.6 mph N/A   Clear
9:35 PM 86.0 °F 86.1 °F 61.0 °F 43% 29.66 in 10.0 mi South 16.1 mph 21.9 mph N/A   Clear
9:55 PM 86.4 °F 85.9 °F 59.5 °F 40% 29.66 in 10.0 mi South 17.3 mph 24.2 mph N/A   Clear
10:15 PM 86.2 °F 86.1 °F 60.4 °F 42% 29.66 in 10.0 mi South 17.3 mph 25.3 mph N/A   Clear
10:35 PM 85.5 °F 85.7 °F 61.2 °F 44% 29.67 in 10.0 mi South 20.7 mph 28.8 mph N/A   Clear
10:55 PM 85.1 °F 85.2 °F 61.0 °F 44% 29.67 in 10.0 mi South 19.6 mph 29.9 mph N/A   Clear
11:15 PM 84.4 °F 84.6 °F 60.8 °F 45% 29.68 in 10.0 mi South 19.6 mph 31.1 mph N/A   Clear
11:35 PM 83.7 °F 83.9 °F 60.8 °F 46% 29.67 in 10.0 mi South 20.7 mph 31.1 mph N/A   Clear
11:55 PM 82.9 °F 83.3 °F 61.0 °F 47% 29.67 in 10.0 mi South 19.6 mph 31.1 mph N/A   Clear